Other Surface Observations
Issued by NWS Tucson, AZ

Home | Current Version | Previous Version | Text Only | Print | Product List | Glossary On
Versions: 1 2 3 4 5 6 7 8 9 10 11 12 13 14 15 16 17 18 19 20 21 22 23 24 25 26 27 28 29 30 31 32 33 34 35 36 37 38 39 40 41 42 43 44 45 46 47 48 49 50
856
SXUS55 KTWC 182115
OSOTWC

WEATHER ROUNDUP FOR SOUTHEAST ARIZONA
NATIONAL WEATHER SERVICE TUCSON AZ
215 PM MST THU JAN 18 2018

AZZ504>506-514-182215-
LOCATION       SKY/WX    TMP DP  RH WIND       PRES   REMARKS
TUCSON         FAIR      72  20  14 CALM      30.13F
DAVIS-MONTHAN  FAIR      78  21  12 E3        30.11F
CHILDRENS PARK N/A      N/A N/A  16 SE1               PIMA CO DEQ
ALVERNON/22ND  N/A       72 N/A N/A E4                PIMA CO DEQ
CHERRY/GLENN   N/A       71 N/A N/A E3                PIMA CO DEQ
TANGERINE      N/A       68 N/A N/A NW4               PIMA CO DEQ
CONTL RANCH    N/A       67  25  20 N5                PIMA CO DEQ
GRANT/1ST      N/A       70  20  15 E2                PIMA CO DEQ
CRAYCROFT/22ND N/A       71  21  15 NE5               PIMA CO DEQ
GOLFLINKS/KOLB N/A       69  19  15 SE4               PIMA CO DEQ
AJO/12TH       N/A       70  22  16 SE7               PIMA CO DEQ
FAIRGROUNDS    N/A       68 N/A N/A E15               PIMA CO DEQ
SAGUARO        N/A       75  21  13 CALM              *SABINO CYN
SAN CARLOS     N/A       58  20  23 W3                *SAN CARLOS
GREEN VALLEY   N/A       69  21  16 NE2               PIMA CO DEQ
HORSE CAMP CYN N/A       60  21  22 E9G14             *ARAVAIPA CYN
RINCON MTNS    N/A       54  18  24 CALM              *NR MANNING CAMP
$$

AZZ509>511-182215-
LOCATION       SKY/WX    TMP DP  RH WIND       PRES   REMARKS
SAFFORD        FAIR      58  18  21 SE6       30.19F
STRAY HORSE    N/A       55  18  23 S3                *
TRAIL CABIN    N/A       57  18  22 NW3               *N OF GRANVILLE
BLACK HILLS    NOT AVBL
DRY LAKE       N/A       55  21  26 SW4               *NATANES MTNS
NOON CREEK     N/A       56  18  22 E4                *PINALENO MTNS
COLUMBINE      N/A       49   0  13 N3                *PINALENO MTNS
GUTHRIE        N/A       50  17  27 SW3               *SW OF GUTHRIE
$$

AZZ502-503-513-182215-
LOCATION       SKY/WX    TMP DP  RH WIND       PRES   REMARKS
NOGALES        FAIR      71  19  14 CALM      30.13F
SELLS          N/A       74  22  14 NE3               *
SASABE         N/A       74  20  13 NE6G11            *ALTAR VLY
HOPKINS        N/A       61  18  19 W6G11             *SANTA RITA MTNS
CARR CYN       N/A       58  22  25 E4G10             *W OF HEREFORD
$$

AZZ507-508-512-182215-
LOCATION       SKY/WX    TMP DP  RH WIND       PRES   REMARKS
SIERRA VISTA   FAIR      63  18  17 N5        30.20F
DOUGLAS        FAIR      62  21  20 E3        30.18F
EMPIRE MTNS    NOT AVBL
MULESHOE RANCH N/A       63  19  18 SE4G11            *PRESERVE
HEADQUARTERS   NOT AVBL
$$

.............................NOTES.............................
THIS IS AN AUTOMATED COLLECTIVE WITH MINIMAL QUALITY CONTROL.
PIMA CO DEQ SITES HAVE NONSTANDARD WIND SENSOR HEIGHTS.
PIMA CO DEQ SITES DO NOT REPORT WIND GUSTS.
* INDICATES WIND SENSORS LOCATED AT 20 FEET INSTEAD OF 33 FEET.
..............................KEY..............................
SKY/WX - SKY CONDITION/WEATHER
TMP    - TEMPERATURE IN FAHRENHEIT
DP     - DEWPOINT IN FAHRENHEIT
RH     - RELATIVE HUMIDITY IN PERCENT
WIND   - DIRECTION AND SPEED IN MILES PER HOUR (MPH)
VRB    - VARIABLE WIND DIRECTION
PRES   - MEAN SEA LEVEL PRESSURE IN INCHES OF MERCURY
         F - FALLING PRESSURE   R - RISING PRESSURE
         S - STEADY PRESSURE
VSB    - VISIBILITY IN MILES
HX     - HEAT INDEX IN FAHRENHEIT
WCI    - WIND CHILL INDEX IN FAHRENHEIT
N/A    - NOT AVAILABLE
AFB    - AIR FORCE BASE
         DAVIS-MONTHAN IS DAVIS-MONTHAN AIR FORCE BASE
CYN    - CANYON
MTNS   - MOUNTAINS
NCA    - NATIONAL CONSERVATION AREA
NR     - NEAR
VLY    - VALLEY
CONTL  - CONTINENTAL
PIMA CO DEQ - PIMA COUNTY DEPT OF ENVIRONMENTAL QUALITY



USA.gov is the U.S. government's official web portal to all federal, state and local government web resources and services.